Вернуться в каталог

STARLINK-37695

АктивенСвязьVLEO
NORAD 69824·PAYLOAD·🇺🇸 United States

Запущен Jul 5, 2026 с Cape Canaveral Space Force Station

Loading…

Ближайшие Пролёты (ближайшие 24 часа)

TLE

СвежийSource: CelesTrak SupGP

Эпоха: Sep 14, 2026, 23:42 UTC

1 69824C 26154F   26257.98798611  .00001501  00000+0  44356-4 0  2577
2 69824  53.1595 357.7830 0001063  79.1051  67.1451 15.34388945    10

Отслеживайте STARLINK-37695 в реальном времени с AllMySat

Download on the App Store